This is the latest recevied weather packets stored in our database for station/object K8RRT. If no packets are shown the sender has not sent any weather packets the latest 10 day(s).
| Time | Temp. | Humidity | Pressure | Rain* | Wind** | Luminosity | Snow |
|---|---|---|---|---|---|---|---|
| 1777256475 | 11.11° C | 96% | 1013.9 hPa | 0 mm | - | 0 W/m² | - |
| 1777256171 | 11.11° C | 96% | 1014.1 hPa | 0 mm | - | 0 W/m² | - |
| 1777255868 | 11.11° C | 95% | 1013.9 hPa | 0 mm | - | 0 W/m² | - |
| 1777255563 | 11.11° C | 95% | 1014 hPa | 0 mm | - | 0 W/m² | - |
| 1777255260 | 11.67° C | 95% | 1014 hPa | 0 mm | - | 0 W/m² | - |
| 1777254955 | 11.67° C | 94% | 1014 hPa | 0 mm | - | 0 W/m² | - |
| 1777254653 | 11.67° C | 94% | 1014 hPa | 0 mm | - | 0 W/m² | - |
| 1777254349 | 11.11° C | 93% | 1013.9 hPa | 0 mm | - | 0 W/m² | - |
| 1777254045 | 11.67° C | 92% | 1013.8 hPa | 0 mm | - | 0 W/m² | - |
| 1777253742 | 11.67° C | 92% | 1014 hPa | 0 mm | - | 0 W/m² | - |
| 1777253440 | 11.67° C | 91% | 1013.9 hPa | 0 mm | - | 0 W/m² | - |
| 1777253137 | 12.22° C | 90% | 1013.8 hPa | 0 mm | - | 0 W/m² | - |
| 1777252834 | 12.78° C | 89% | 1013.8 hPa | 0 mm | - | 0 W/m² | - |
| 1777252531 | 12.78° C | 89% | 1013.5 hPa | 0 mm | - | 0 W/m² | - |
| 1777252228 | 12.78° C | 88% | 1013.6 hPa | 0 mm | - | 0 W/m² | - |
| 1777251926 | 12.78° C | 88% | 1013.6 hPa | 0 mm | - | 0 W/m² | - |
| 1777251623 | 12.78° C | 87% | 1013.6 hPa | 0 mm | - | 0 W/m² | - |
| 1777251320 | 13.33° C | 86% | 1013.4 hPa | 0 mm | - | 0 W/m² | - |
| 1777251015 | 13.89° C | 85% | 1013.3 hPa | 0 mm | - | 0 W/m² | - |
| 1777250712 | 13.89° C | 84% | 1013.4 hPa | 0 mm | - | 0 W/m² | - |
| 1777250409 | 14.44° C | 83% | 1013.2 hPa | 0 mm | - | 0 W/m² | - |
| 1777250109 | 14.44° C | 81% | 1013.3 hPa | 0 mm | - | 0 W/m² | - |
| 1777249806 | 15° C | 81% | 1013.1 hPa | 0 mm | - | 0 W/m² | - |
| 1777249501 | 15° C | 79% | 1013.2 hPa | 0 mm | - | 0 W/m² | - |
| 1777249199 | 15.56° C | 78% | 1013.1 hPa | 0 mm | - | 0 W/m² | - |
* Rain latest hour (hover to see other rain measurements)
** Current wind speed in m/s (hover to see current wind gust speed)